Location: ?nandapuram
(16.5396°N, 81.1430°E)
Time: 10:22:49
(UTC+00:00)

USA 229 DEB - Pass Details

Date: 14 April 2026
Orbit: 844 x 1364 km, 63.4° (Epoch: 10 January)

Event Time Altitude Azimuth Distance (km) Brightness Sun altitude
Rises 22:06:10 0° 331° (NNW) 4,234 6.8 -31.7°
Reaches altitude 10° 22:08:55 10° 329° (NNW) 3,314 6.2 -31.1°
Maximum altitude 22:17:04 71° 247° (WSW) 1,423 4.0 -29.3°
Drops below altitude 10° 22:25:28 10° 165° (SSE) 3,401 6.3 -27.4°
Sets 22:28:20 0° 163° (SSE) 4,350 6.9 -26.8°
